CW5586 Weather Reports


Display with metric or nautical units.
time (UTC)temp
F
wind
direction
speed
MPH
gust
MPH
rain 1hr
in
rain 24hr
in
rain mn
in
humidity
%
barometer
mb
20260502123604 71 252 8.0 15.0 0.00 0.00 0.00 45 1013.4
20260502121604 70 221 9.0 14.0 0.00 0.00 0.00 46 1013.9
20260502121104 70 207 6.0 17.0 0.00 0.00 0.00 46 1013.8
20260502120603 70 130 5.0 17.0 0.00 0.00 0.00 46 1014.0
20260502113603 71 195 6.0 13.0 0.00 0.00 0.00 46 1014.2
20260502111604 71 167 8.0 12.0 0.00 0.00 0.00 45 1014.4
20260502110603 71 188 7.0 15.0 0.00 0.00 0.00 44 1014.4
20260502103603 69 215 5.0 13.0 0.00 0.00 0.00 46 1014.7
20260502103104 69 205 5.0 12.0 0.00 0.00 0.00 48 1014.8
20260502101104 68 238 5.0 12.0 0.00 0.00 0.00 49 1014.9
20260502100604 68 211 3.0 8.0 0.00 0.00 0.00 50 1015.0
20260502100115 68 202 3.0 13.0 0.00 0.00 0.00 51 1015.0
20260502090604 66 242 10.0 10.0 0.00 0.00 0.00 51 1015.5
20260502090114 66 221 5.0 13.0 0.00 0.00 0.00 52 1015.6
20260502070604 59 212 6.0 10.0 0.00 0.00 0.00 62 1016.2
20260502070115 59 209 3.0 12.0 0.00 0.00 0.00 62 1016.3
20260502063604 57 188 5.0 9.0 0.00 0.00 0.00 65 1016.5
20260502063103 57 183 5.0 12.0 0.00 0.00 0.00 66 1016.5
20260502061604 55 152 6.0 12.0 0.00 0.00 0.00 67 1016.6
20260502061103 55 183 3.0 10.0 0.00 0.00 0.00 68 1016.7
20260502060115 55 190 3.0 10.0 0.00 0.00 0.00 68 1016.8
20260502053604 53 190 3.0 6.0 0.00 0.00 0.00 72 1017.0
20260502051603 51 191 2.0 5.0 0.00 0.00 0.00 76 1017.1
20260502051104 51 211 2.0 2.0 0.00 0.00 0.00 77 1017.1
20260502050604 50 183 2.0 5.0 0.00 0.00 0.00 78 1017.2
20260502044104 48 142 3.0 3.0 0.00 0.00 0.00 84 1017.4
20260502043604 47 168 2.0 6.0 0.00 0.00 0.00 86 1017.5
20260502043104 46 138 2.0 6.0 0.00 0.00 0.00 88 1017.5
20260502040605 45 0 0.0 2.0 0.00 0.00 0.00 88 1017.8
20260502040115 44 138 1.0 2.0 0.00 0.00 0.00 88 1017.8
20260502034605 45 100 2.0 2.0 0.00 0.00 0.00 86 1018.0
20260502034104 45 0 0.0 2.0 0.00 0.00 0.00 88 1018.1
20260502033603 44 0 0.0 2.0 0.00 0.00 0.00 86 1018.2
20260502024604 43 0 0.0 0.0 0.00 0.00 0.00 86 1018.9
20260502024103 43 0 0.0 0.0 0.00 0.00 0.00 87 1019.0
20260502023104 43 0 0.0 3.0 0.00 0.00 0.00 86 1019.1
20260502021604 43 0 0.0 3.0 0.00 0.00 0.00 85 1019.3
20260502021104 43 0 0.0 0.0 0.00 0.00 0.00 84 1019.3
20260502014603 44 0 0.0 0.0 0.00 0.00 0.00 82 1019.6
20260502013603 45 0 0.0 0.0 0.00 0.00 0.00 82 1019.7
20260502013104 45 0 0.0 0.0 0.00 0.00 0.00 82 1019.8
20260502010603 45 0 0.0 0.0 0.00 0.00 0.00 81 1020.1
20260502004604 45 0 0.0 0.0 0.00 0.00 0.00 80 1020.4
20260502004104 45 0 0.0 0.0 0.00 0.00 0.00 79 1020.5
20260502003104 46 0 0.0 1.0 0.00 0.00 0.00 78 1020.6
20260502000603 44 153 0.0 1.0 0.00 0.00 0.00 79 1020.8
20260501234104 45 0 0.0 2.0 0.00 0.00 0.00 74 1020.9
20260501231103 46 99 2.0 3.0 0.00 0.00 0.00 74 1021.2
20260501230605 46 0 0.0 0.0 0.00 0.00 0.00 73 1021.3
20260501224604 46 0 0.0 2.0 0.00 0.00 0.00 72 1021.4
20260501221107 47 0 0.0 2.0 0.00 0.00 0.00 71 1021.6
20260501220605 47 0 0.0 2.0 0.00 0.00 0.00 71 1021.6
20260501214604 48 0 0.0 2.0 0.00 0.00 0.00 69 1021.7
20260501214104 48 0 0.0 2.0 0.00 0.00 0.00 69 1021.8
20260501213104 49 194 1.0 2.0 0.00 0.00 0.00 68 1021.9
20260501211604 49 0 0.0 1.0 0.00 0.00 0.00 68 1022.0
20260501211103 49 0 0.0 2.0 0.00 0.00 0.00 68 1022.0
20260501210604 49 236 1.0 2.0 0.00 0.00 0.00 67 1022.1
20260501204604 50 65 1.0 2.0 0.00 0.00 0.00 67 1022.3
20260501203604 50 65 2.0 2.0 0.00 0.00 0.00 66 1022.4
20260501203104 51 97 1.0 2.0 0.00 0.00 0.00 64 1022.4
20260501194603 54 217 2.0 3.0 0.00 0.00 0.00 58 1022.7
20260501194104 54 179 1.0 2.0 0.00 0.00 0.00 58 1022.8
20260501193603 55 0 0.0 2.0 0.00 0.00 0.00 57 1022.9
20260501191603 57 0 0.0 1.0 0.00 0.00 0.00 50 1022.9
20260501191103 58 200 1.0 2.0 0.00 0.00 0.00 49 1022.9
20260501190114 59 233 2.0 3.0 0.00 0.00 0.00 47 1023.0
20260501183604 61 209 2.0 3.0 0.00 0.00 0.00 44 1023.1
20260501183103 61 278 1.0 7.0 0.00 0.00 0.00 44 1023.1
20260501181603 63 309 2.0 2.0 0.00 0.00 0.00 42 1023.2
20260501181104 63 297 1.0 3.0 0.00 0.00 0.00 42 1023.2
20260501173605 63 269 1.0 7.0 0.00 0.00 0.00 41 1023.4
20260501171604 64 253 3.0 7.0 0.00 0.00 0.00 40 1023.6
20260501171104 64 11 3.0 6.0 0.00 0.00 0.00 41 1023.7
20260501164104 65 296 2.0 5.0 0.00 0.00 0.00 40 1024.0
20260501163604 64 248 5.0 9.0 0.00 0.00 0.00 41 1024.0
20260501163104 64 221 3.0 10.0 0.00 0.00 0.00 37 1024.1
20260501161604 65 279 6.0 8.0 0.00 0.00 0.00 37 1024.4
20260501161104 65 274 8.0 13.0 0.00 0.00 0.00 37 1024.4
20260501160115 65 281 5.0 10.0 0.00 0.00 0.00 37 1024.5
20260501151604 65 223 5.0 13.0 0.00 0.00 0.00 37 1024.9
20260501144104 64 261 10.0 21.0 0.00 0.00 0.00 38 1025.4
20260501143604 64 0 3.0 14.0 0.00 0.00 0.00 38 1025.4
20260501141603 65 331 2.0 12.0 0.00 0.00 0.00 39 1025.7
20260501140604 64 298 2.0 14.0 0.00 0.00 0.00 39 1025.8